{"data":{"norad_id":58002,"intl_designator":"2023-153M","name":"STARLINK-30540","alt_names":[],"object_type":"PAYLOAD","status":"ACTIVE","operator":null,"country":"US","launch_date":"2023-10-05","launch_site_code":"AFETR","launch_vehicle":null,"mission":null,"orbit_class":"UNKNOWN","rcs_meters":null,"size_class":null,"mass_kg":null,"dimensions":null,"purposes":["comms"],"wikipedia_slug":null,"has_3d_model":false,"image_url":null,"decayed_at":null,"tle_current":{"epoch":"2026-09-19T17:19:39.808992Z","epoch_age_seconds":204831,"freshness":"STALE","line1":"1 58002U 23153M   26262.72198853  .00000281  00000+0  19758-4 0  9994","line2":"2 58002  43.0048  51.0297 0001453 267.5239  92.5446 15.27578451164474","mean_motion":15.27578451,"eccentricity":0.0001453,"inclination_deg":43.0048,"raan_deg":51.0297,"arg_perigee_deg":267.5239,"mean_anomaly_deg":92.5446,"bstar":1.9758e-5,"rev_number":16447,"period_min":94.266844302323,"perigee_km":482.05680329313,"apogee_km":484.05066532052,"semimajor_km":6861.1907343068,"source":"CELESTRAK","updated_at":"2026-09-21T09:00:33.755243Z"}}}